| time (UTC) | temp F | wind direction | speed MPH | gust MPH | rain 1hr in | rain 24hr in | rain mn in | humidity % | barometer mb |
| 20260502233050 | 81 | 0 | 0.0 | 0.0 | 0.00 | 0.00 | 0.00 | 87 | |
| 20260502232049 | 80 | 0 | 0.0 | 0.0 | 0.00 | 0.00 | 0.00 | 90 | |
| 20260502231049 | 80 | 0 | 0.0 | 0.0 | 0.00 | 0.00 | 0.00 | 92 | |
| 20260502230048 | 80 | 0 | 0.0 | 0.0 | 0.00 | 0.00 | 0.00 | 89 | |
| 20260502225048 | 80 | 0 | 0.0 | 0.0 | 0.00 | 0.00 | 0.00 | 89 | |
| 20260502224047 | 80 | 0 | 0.0 | 0.0 | 0.00 | 0.00 | 0.00 | 89 | |
| 20260502223046 | 80 | 0 | 0.0 | 0.0 | 0.00 | 0.00 | 0.00 | 88 | |
| 20260502222046 | 80 | 0 | 0.0 | 0.0 | 0.00 | 0.00 | 0.00 | 92 | |
| 20260502221045 | 80 | 0 | 0.0 | 0.0 | 0.00 | 0.00 | 0.00 | 90 | |
| 20260502220044 | 80 | 0 | 0.0 | 0.0 | 0.00 | 0.00 | 0.00 | 89 | |
| 20260502215044 | 80 | 0 | 0.0 | 0.0 | 0.00 | 0.00 | 0.00 | 92 | |
| 20260502214043 | 81 | 0 | 0.0 | 0.0 | 0.00 | 0.00 | 0.00 | 95 | |
| 20260502213043 | 81 | 0 | 0.0 | 0.0 | 0.00 | 0.00 | 0.00 | 95 | |
| 20260502212042 | 81 | 0 | 0.0 | 0.0 | 0.00 | 0.00 | 0.00 | 94 | |
| 20260502211041 | 81 | 0 | 0.0 | 0.0 | 0.00 | 0.00 | 0.00 | 94 | |
| 20260502210041 | 81 | 0 | 0.0 | 0.0 | 0.00 | 0.00 | 0.00 | 94 | |
| 20260502205040 | 81 | 0 | 0.0 | 0.0 | 0.00 | 0.00 | 0.00 | 94 | |
| 20260502204039 | 81 | 0 | 0.0 | 0.0 | 0.00 | 0.00 | 0.00 | 92 | |
| 20260502203039 | 81 | 0 | 0.0 | 0.0 | 0.00 | 0.00 | 0.00 | 91 | |
| 20260502202038 | 81 | 0 | 0.0 | 0.0 | 0.00 | 0.00 | 0.00 | 90 | |
| 20260502201038 | 81 | 0 | 0.0 | 0.0 | 0.00 | 0.00 | 0.00 | 89 | |
| 20260502200037 | 82 | 0 | 0.0 | 0.0 | 0.00 | 0.00 | 0.00 | 92 | |
| 20260502195036 | 82 | 0 | 0.0 | 0.0 | 0.00 | 0.00 | 0.00 | 90 | |
| 20260502194036 | 82 | 0 | 0.0 | 0.0 | 0.00 | 0.00 | 0.00 | 88 | |
| 20260502193035 | 82 | 0 | 0.0 | 0.0 | 0.00 | 0.00 | 0.00 | 89 | |
| 20260502192035 | 82 | 0 | 0.0 | 0.0 | 0.00 | 0.00 | 0.00 | 84 | |
| 20260502191034 | 82 | 0 | 0.0 | 0.0 | 0.00 | 0.00 | 0.00 | 83 | |
| 20260502190033 | 82 | 0 | 0.0 | 0.0 | 0.00 | 0.00 | 0.00 | 85 | |
| 20260502185033 | 82 | 0 | 0.0 | 0.0 | 0.00 | 0.00 | 0.00 | 86 | |
| 20260502184032 | 82 | 0 | 0.0 | 0.0 | 0.00 | 0.00 | 0.00 | 84 | |
| 20260502183031 | 82 | 0 | 0.0 | 0.0 | 0.00 | 0.00 | 0.00 | 84 | |
| 20260502182031 | 82 | 0 | 0.0 | 0.0 | 0.00 | 0.00 | 0.00 | 84 | |
| 20260502181030 | 82 | 0 | 0.0 | 0.0 | 0.00 | 0.00 | 0.00 | 88 | |
| 20260502164025 | 83 | 0 | 0.0 | 0.0 | 0.00 | 0.00 | 0.00 | 92 | |
| 20260502163024 | 83 | 0 | 0.0 | 0.0 | 0.00 | 0.00 | 0.00 | 93 | |
| 20260502162024 | 83 | 0 | 0.0 | 0.0 | 0.00 | 0.00 | 0.00 | 91 | |
| 20260502161023 | 83 | 0 | 0.0 | 0.0 | 0.00 | 0.00 | 0.00 | 86 | |
| 20260502152020 | 83 | 0 | 0.0 | 0.0 | 0.00 | 0.00 | 0.00 | 84 | |
| 20260502151019 | 83 | 0 | 0.0 | 0.0 | 0.00 | 0.00 | 0.00 | 85 | |
| 20260502123010 | 84 | 0 | 0.0 | 0.0 | 0.00 | 0.00 | 0.00 | 89 | |
| 20260502122009 | 84 | 0 | 0.0 | 0.0 | 0.00 | 0.00 | 0.00 | 90 | |
| 20260502121008 | 84 | 0 | 0.0 | 0.0 | 0.00 | 0.00 | 0.00 | 90 | |
| 20260502115007 | 85 | 0 | 0.0 | 0.0 | 0.00 | 0.00 | 0.00 | 91 | |
| 20260502114014 | 85 | 0 | 0.0 | 0.0 | 0.00 | 0.00 | 0.00 | 90 | |
| 20260502113006 | 85 | 0 | 0.0 | 0.0 | 0.00 | 0.00 | 0.00 | 91 | |
| 20260502112006 | 86 | 0 | 0.0 | 0.0 | 0.00 | 0.00 | 0.00 | 91 | |
| 20260502111005 | 86 | 0 | 0.0 | 0.0 | 0.00 | 0.00 | 0.00 | 89 | |
| 20260502110004 | 87 | 0 | 0.0 | 0.0 | 0.00 | 0.00 | 0.00 | 87 | |
| 20260502105004 | 87 | 0 | 0.0 | 0.0 | 0.00 | 0.00 | 0.00 | 86 | |
| 20260502104003 | 87 | 0 | 0.0 | 0.0 | 0.00 | 0.00 | 0.00 | 85 | |
| 20260502103003 | 87 | 0 | 0.0 | 0.0 | 0.00 | 0.00 | 0.00 | 86 | |
| 20260502102002 | 89 | 0 | 0.0 | 0.0 | 0.00 | 0.00 | 0.00 | 80 | |
| 20260502101001 | 88 | 0 | 0.0 | 0.0 | 0.00 | 0.00 | 0.00 | 85 | |
| 20260502090958 | 90 | 0 | 0.0 | 0.0 | 0.00 | 0.00 | 0.00 | 78 | |
| 20260502070951 | 94 | 0 | 0.0 | 0.0 | 0.00 | 0.00 | 0.00 | 64 | |
| 20260502065950 | 96 | 0 | 0.0 | 0.0 | 0.00 | 0.00 | 0.00 | 62 | |
| 20260502064950 | 98 | 0 | 0.0 | 0.0 | 0.00 | 0.00 | 0.00 | 60 | |
| 20260502063949 | 98 | 0 | 0.0 | 0.0 | 0.00 | 0.00 | 0.00 | 61 | |
| 20260502062949 | 98 | 0 | 0.0 | 0.0 | 0.00 | 0.00 | 0.00 | 60 | |
| 20260502061948 | 99 | 0 | 0.0 | 0.0 | 0.00 | 0.00 | 0.00 | 59 | |
| 20260502060947 | 97 | 0 | 0.0 | 0.0 | 0.00 | 0.00 | 0.00 | 60 | |
| 20260502055947 | 98 | 0 | 0.0 | 0.0 | 0.00 | 0.00 | 0.00 | 58 | |
| 20260502054946 | 99 | 0 | 0.0 | 0.0 | 0.00 | 0.00 | 0.00 | 58 | |
| 20260502053946 | 99 | 0 | 0.0 | 0.0 | 0.00 | 0.00 | 0.00 | 58 | |
| 20260502052945 | 100 | 0 | 0.0 | 0.0 | 0.00 | 0.00 | 0.00 | 56 | |
| 20260502051944 | 99 | 0 | 0.0 | 0.0 | 0.00 | 0.00 | 0.00 | 58 | |
| 20260502050944 | 99 | 0 | 0.0 | 0.0 | 0.00 | 0.00 | 0.00 | 57 | |
| 20260502045943 | 100 | 0 | 0.0 | 0.0 | 0.00 | 0.00 | 0.00 | 56 | |
| 20260502044943 | 100 | 0 | 0.0 | 0.0 | 0.00 | 0.00 | 0.00 | 56 | |
| 20260502043944 | 100 | 0 | 0.0 | 0.0 | 0.00 | 0.00 | 0.00 | 56 | |
| 20260502042942 | 100 | 0 | 0.0 | 0.0 | 0.00 | 0.00 | 0.00 | 55 | |
| 20260502041941 | 99 | 0 | 0.0 | 0.0 | 0.00 | 0.00 | 0.00 | 57 | |
| 20260502040941 | 101 | 0 | 0.0 | 0.0 | 0.00 | 0.00 | 0.00 | 55 | |
| 20260502035940 | 100 | 0 | 0.0 | 0.0 | 0.00 | 0.00 | 0.00 | 56 | |
| 20260502034940 | 100 | 0 | 0.0 | 0.0 | 0.00 | 0.00 | 0.00 | 53 | |
| 20260502033939 | 100 | 0 | 0.0 | 0.0 | 0.00 | 0.00 | 0.00 | 54 | |
| 20260502032938 | 100 | 0 | 0.0 | 0.0 | 0.00 | 0.00 | 0.00 | 53 | |
| 20260502031938 | 103 | 0 | 0.0 | 0.0 | 0.00 | 0.00 | 0.00 | 51 | |
| 20260502030937 | 103 | 0 | 0.0 | 0.0 | 0.00 | 0.00 | 0.00 | 51 | |
| 20260502025937 | 105 | 0 | 0.0 | 0.0 | 0.00 | 0.00 | 0.00 | 48 | |
| 20260502024936 | 106 | 0 | 0.0 | 0.0 | 0.00 | 0.00 | 0.00 | 48 | |
| 20260502023942 | 105 | 0 | 0.0 | 0.0 | 0.00 | 0.00 | 0.00 | 49 | |
| 20260502022935 | 105 | 0 | 0.0 | 0.0 | 0.00 | 0.00 | 0.00 | 48 | |
| 20260502021934 | 115 | 0 | 0.0 | 0.0 | 0.00 | 0.00 | 0.00 | 40 | |
| 20260502020933 | 116 | 0 | 0.0 | 0.0 | 0.00 | 0.00 | 0.00 | 40 | |
| 20260502015933 | 114 | 0 | 0.0 | 0.0 | 0.00 | 0.00 | 0.00 | 41 | |
| 20260502014932 | 110 | 0 | 0.0 | 0.0 | 0.00 | 0.00 | 0.00 | 44 | |
| 20260502013932 | 108 | 0 | 0.0 | 0.0 | 0.00 | 0.00 | 0.00 | 46 | |
| 20260502012931 | 108 | 0 | 0.0 | 0.0 | 0.00 | 0.00 | 0.00 | 46 | |
| 20260502011931 | 108 | 0 | 0.0 | 0.0 | 0.00 | 0.00 | 0.00 | 46 | |
| 20260502010930 | 108 | 0 | 0.0 | 0.0 | 0.00 | 0.00 | 0.00 | 47 | |
| 20260502005929 | 107 | 0 | 0.0 | 0.0 | 0.00 | 0.00 | 0.00 | 48 | |
| 20260502004929 | 105 | 0 | 0.0 | 0.0 | 0.00 | 0.00 | 0.00 | 51 | |
| 20260502003928 | 101 | 0 | 0.0 | 0.0 | 0.00 | 0.00 | 0.00 | 55 | |
| 20260502002936 | 99 | 0 | 0.0 | 0.0 | 0.00 | 0.00 | 0.00 | 57 | |
| 20260502001927 | 97 | 0 | 0.0 | 0.0 | 0.00 | 0.00 | 0.00 | 62 | |
| 20260502000926 | 89 | 0 | 0.0 | 0.0 | 0.00 | 0.00 | 0.00 | 74 | |
| 20260501235925 | 86 | 0 | 0.0 | 0.0 | 0.00 | 0.00 | 0.00 | 80 | |
| 20260501234925 | 85 | 0 | 0.0 | 0.0 | 0.00 | 0.00 | 0.00 | 83 | |
| 20260501233924 | 84 | 0 | 0.0 | 0.0 | 0.00 | 0.00 | 0.00 | 85 |